Starlink 33660

operational
NORAD ID: 63278 Int'l Des: 2025-053 Owner: SPXS Country: US Constellation: starlink
LEOCIRCULAR

关于 Starlink 33660

正在加载描述...

实时位置

正在加载3D地球...

即将过境

高度历史

Altitude vs Time

uPlot chart will show altitude changes over time

两行轨道根数

1 63278U 25053P 25260.04393668 .00034229 00000-0 12476-2 0 9997
2 63278 43.0019 142.6928 0001318 279.6945 80.3758 15.27580932 29635
Epoch: Sep 17, 2025 • Age: 30 hours

当前状态

高度 486.6 km
速度 7.63 km/s
星下点 42.35°N, 106.3°E
发射日期 Mar 15, 2025
运行时间 0.5 years
类型 internet

技术详情

分类 Payload
质量 575.00 kg
干质量 530.00 kg
总质量 575.00 kg
长度 0.30 m
直径 4.10 m
跨度 29.00 m
形状 Box + pan
制造商 SPXS
平台类型 Starlink V2MO
阶段状态 In Orbit
所有者/国家 SPXS/US

大型星座

Loading constellations...